Location: Asheville, NC
(35.6000°N, 82.5500°W)
Time: 09:14:39

Vanguard 2 Rocket - Pass Details

Date: 14 March 2018
Orbit: 554 x 3327 km, 32.9° (Epoch: 20 March)

Event Time Altitude Azimuth Distance (km) Brightness Sun altitude
Rises 19:53:08 0° 264° (W) 2,751 12.1 -4.1°
Reaches altitude 10° 19:55:07 10° 261° (W) 1,932 10.4 -4.5°
Maximum altitude 19:59:19 66° 179° (S) 790 6.6 -5.4°
Drops below altitude 10° 20:05:35 10° 98° (E) 2,846 8.8 -6.6°
Enters shadow 20:06:18 - 97° (E) 3,134 9.0 -6.8°
Sets 20:09:04 0° 96° (E) 4,213 - -7.4°
